Weather History for Charles City, IA

Change the Weather History Date:

Thursday, May 2, 2013

  Actual Average Record
Temperature  
Mean Temperature 34 °F -  
Max Temperature 35 °F 65 °F 93 °F (1992)
Min Temperature 32 °F 40 °F 28 °F (1967)
Degree Days  
Heating Degree Days 32    
Moisture  
Dew Point 31 °F    
Average Humidity 93    
Maximum Humidity 100    
Minimum Humidity 87    
Precipitation  
Precipitation 0.51 in - - ()
Sea Level Pressure  
Sea Level Pressure 30.37 in    
Wind  
Wind Speed 23 mph (North)    
Max Wind Speed 29 mph    
Max Gust Speed 39 mph    
Visibility 2 miles    
Events Rain , Snow    
Averages and records for this station are not official NWS values.
T = Trace of Precipitation, MM = Missing Value Source: NWS Daily Summary

Daily Weather History Graph

Daily Weather History Graph

Search for Another Location

Airport:

Trip Planner

Search our weather history database for the weather conditions in past years. The results will help you decide how hot, cold, wet, or windy it might be!

Date:

Astronomy

May. 02, 2013 Rise Set
Actual Time 6:02 AM CDT 8:13 PM CDT
Civil Twilight 5:31 AM CDT 8:44 PM CDT
Nautical Twilight 4:52 AM CDT 9:23 PM CDT
Astronomical Twilight 4:10 AM CDT 10:05 PM CDT
Moon 2:01 AM CDT (5/2) 12:52 PM CDT (5/2)
Length of Visible Light 15h 13m
Length of Day
14h 10m
Waning Gibbous, 47% of the Moon is Illuminated
May 2
Waning Gibbous
May 9
New
May 17
First Quarter
May 24
Full
May 31
Last Quarter

Hourly Weather History & Observations

Time (CDT) Temp. Windchill Dew Point Humidity Pressure Visibility Wind Dir Wind Speed Gust Speed Precip Events Conditions
12:15 AM 35.6 °F 23.7 °F 33.8 °F 93% 30.35 in 10.0 mi North 24.2 mph 35.7 mph N/A Rain Light Rain
12:35 AM 35.6 °F 23.2 °F 33.8 °F 93% 30.34 in 10.0 mi North 26.5 mph - N/A Rain Light Rain
12:55 AM 35.6 °F 24.0 °F 32.0 °F 87% 30.34 in 10.0 mi North 23.0 mph 31.1 mph N/A   Overcast
1:15 AM 35.6 °F 23.4 °F 32.0 °F 87% 30.33 in 10.0 mi NNE 25.3 mph 36.8 mph N/A   Overcast
1:35 AM 35.6 °F 22.7 °F 32.0 °F 87% 30.32 in 10.0 mi North 28.8 mph 39.1 mph N/A   Overcast
1:55 AM 35.6 °F 22.7 °F 32.0 °F 87% 30.32 in 10.0 mi North 28.8 mph 36.8 mph N/A   Overcast
2:15 AM 35.6 °F 23.0 °F 32.0 °F 87% 30.32 in 9.0 mi North 27.6 mph 35.7 mph N/A Rain Light Rain
2:35 AM 35.6 °F 23.7 °F 32.0 °F 87% 30.33 in 5.0 mi North 24.2 mph 33.4 mph N/A   Overcast
2:55 AM 35.6 °F 23.2 °F 32.0 °F 87% 30.35 in 2.5 mi North 26.5 mph 39.1 mph 0.04 in   Overcast
3:15 AM 35.6 °F 23.0 °F 32.0 °F 87% 30.35 in 2.5 mi North 27.6 mph 35.7 mph N/A   Overcast
3:35 AM 33.8 °F 20.8 °F 32.0 °F 93% 30.33 in 2.0 mi NNE 26.5 mph 36.8 mph N/A Rain Heavy Rain
3:55 AM 33.8 °F 21.3 °F 32.0 °F 93% 30.34 in 2.5 mi North 24.2 mph 33.4 mph 0.16 in   Overcast
4:15 AM 33.8 °F 21.3 °F 32.0 °F 93% 30.35 in 3.0 mi North 24.2 mph 32.2 mph N/A Rain Heavy Rain
4:35 AM 33.8 °F 21.3 °F 32.0 °F 93% 30.37 in 1.2 mi North 24.2 mph 29.9 mph N/A Snow Light Snow
4:55 AM 33.8 °F 21.6 °F 32.0 °F 93% 30.36 in 2.0 mi North 23.0 mph 32.2 mph 0.11 in Rain Heavy Rain
5:15 AM 33.8 °F 21.6 °F 32.0 °F 93% 30.36 in 1.8 mi North 23.0 mph 31.1 mph N/A Rain Light Rain
5:35 AM 33.8 °F 21.0 °F 32.0 °F 93% 30.33 in 1.0 mi North 25.3 mph 35.7 mph N/A   Overcast
5:55 AM 33.8 °F 22.5 °F 32.0 °F 93% 30.36 in 3.0 mi North 19.6 mph 32.2 mph 0.05 in Rain Heavy Rain
6:15 AM 32.0 °F 19.8 °F 32.0 °F 100% 30.35 in 1.0 mi North 20.7 mph 33.4 mph N/A   Overcast
6:35 AM 32.0 °F 19.2 °F 32.0 °F 100% 30.36 in 0.2 mi North 23.0 mph 31.1 mph N/A   Overcast
6:55 AM 32.0 °F 18.6 °F 32.0 °F 100% 30.37 in 0.5 mi North 25.3 mph 32.2 mph 0.08 in Snow Light Snow
7:15 AM 32.0 °F 19.8 °F 32.0 °F 100% 30.39 in 0.2 mi North 20.7 mph 31.1 mph N/A Snow Light Snow
7:35 AM 32.0 °F 19.8 °F 32.0 °F 100% 30.39 in 0.8 mi North 20.7 mph 28.8 mph N/A Snow Light Snow
7:55 AM 32.0 °F 20.1 °F 32.0 °F 100% 30.40 in 0.8 mi North 19.6 mph 28.8 mph 0.03 in Snow Light Snow
8:15 AM 32.0 °F 20.5 °F 32.0 °F 100% 30.42 in 0.2 mi North 18.4 mph 26.5 mph N/A Snow Heavy Snow
8:35 AM 32.0 °F 20.1 °F 32.0 °F 100% 30.41 in 0.2 mi North 19.6 mph - N/A Snow Heavy Snow
8:55 AM 32.0 °F 19.5 °F 32.0 °F 100% 30.40 in 0.8 mi North 21.9 mph - 0.03 in   Overcast
9:15 AM 32.0 °F 18.9 °F 32.0 °F 100% 30.40 in 0.8 mi North 24.2 mph 31.1 mph N/A Snow Light Snow
9:35 AM 32.0 °F 18.9 °F 30.2 °F 93% 30.39 in 0.5 mi North 24.2 mph 33.4 mph N/A   Overcast
9:55 AM 32.0 °F 20.5 °F 30.2 °F 93% 30.41 in 0.5 mi North 18.4 mph 28.8 mph N/A Snow Light Snow
10:15 AM 32.0 °F 19.2 °F 30.2 °F 93% 30.41 in 0.5 mi North 23.0 mph 32.2 mph N/A Snow Light Snow
10:35 AM 32.0 °F 18.9 °F 30.2 °F 93% 30.40 in 0.2 mi North 24.2 mph - N/A Snow Light Snow
10:55 AM 32.0 °F 18.9 °F 30.2 °F 93% 30.40 in 0.2 mi North 24.2 mph 33.4 mph N/A Snow Heavy Snow
11:15 AM 32.0 °F - 30.2 °F 93% 30.42 in 0.2 mi North - - N/A Snow Heavy Snow
11:35 AM 32.0 °F 20.8 °F 30.2 °F 93% 30.43 in 0.2 mi North 17.3 mph 26.5 mph N/A Snow Snow
11:55 AM 32.0 °F 18.9 °F 30.2 °F 93% 30.41 in 0.2 mi North 24.2 mph 31.1 mph 0.01 in Snow Heavy Snow
12:15 PM 32.0 °F 19.2 °F 30.2 °F 93% 30.42 in 0.2 mi North 23.0 mph - N/A Snow Snow
12:35 PM 32.0 °F 20.8 °F 30.2 °F 93% 30.43 in 0.2 mi North 17.3 mph 25.3 mph N/A Snow Light Snow
12:55 PM 32.0 °F 19.5 °F 30.2 °F 93% 30.41 in 0.2 mi North 21.9 mph - N/A Snow Snow
1:15 PM 32.0 °F 19.2 °F 30.2 °F 93% 30.39 in 0.2 mi North 23.0 mph 32.2 mph N/A Snow Light Snow
1:35 PM 32.0 °F 18.6 °F 30.2 °F 93% 30.38 in 0.8 mi North 25.3 mph 33.4 mph N/A   Overcast
1:55 PM 32.0 °F 18.6 °F 30.2 °F 93% 30.39 in 1.8 mi North 25.3 mph - N/A Snow Light Snow
2:15 PM 32.0 °F 18.9 °F 30.2 °F 93% 30.41 in 1.5 mi North 24.2 mph - N/A Snow Light Snow
2:35 PM 32.0 °F 18.9 °F 30.2 °F 93% 30.41 in 0.5 mi North 24.2 mph 31.1 mph N/A Snow Light Snow
2:55 PM 32.0 °F 18.9 °F 30.2 °F 93% 30.40 in 0.2 mi North 24.2 mph - N/A Snow Light Snow
3:15 PM 32.0 °F 19.2 °F 30.2 °F 93% 30.41 in 0.5 mi North 23.0 mph - N/A Snow Light Snow
3:35 PM 32.0 °F 19.5 °F 30.2 °F 93% 30.41 in 0.5 mi North 21.9 mph 28.8 mph N/A Snow Light Snow
3:55 PM 32.0 °F 19.5 °F 30.2 °F 93% 30.40 in 0.5 mi North 21.9 mph - N/A Snow Light Snow
4:15 PM 32.0 °F 20.1 °F 30.2 °F 93% 30.39 in 0.5 mi North 19.6 mph 28.8 mph N/A Snow Light Snow
4:35 PM 32.0 °F 20.1 °F 30.2 °F 93% 30.39 in 0.8 mi North 19.6 mph 28.8 mph N/A Snow Light Snow
4:55 PM 32.0 °F 19.8 °F 30.2 °F 93% 30.38 in 0.8 mi North 20.7 mph - N/A Snow Light Snow
5:15 PM 32.0 °F 20.1 °F 30.2 °F 93% 30.37 in 0.5 mi North 19.6 mph 25.3 mph N/A Snow Light Snow
5:35 PM 32.0 °F 20.5 °F 30.2 °F 93% 30.37 in 0.8 mi North 18.4 mph 25.3 mph N/A Snow Light Snow
5:55 PM 32.0 °F 20.8 °F 30.2 °F 93% 30.36 in 1.0 mi North 17.3 mph 27.6 mph N/A Snow Light Snow
6:15 PM 32.0 °F 19.8 °F 30.2 °F 93% 30.36 in 1.2 mi North 20.7 mph 27.6 mph N/A Snow Light Snow
6:35 PM 32.0 °F 20.1 °F 30.2 °F 93% 30.37 in 1.0 mi North 19.6 mph 26.5 mph N/A Snow Light Snow
6:55 PM 32.0 °F 19.8 °F 30.2 °F 93% 30.36 in 1.0 mi North 20.7 mph 27.6 mph N/A Snow Light Snow
7:15 PM 32.0 °F 19.8 °F 30.2 °F 93% 30.37 in 0.5 mi North 20.7 mph 28.8 mph N/A Snow Light Snow
7:35 PM 32.0 °F 20.5 °F 30.2 °F 93% 30.37 in 0.8 mi North 18.4 mph 24.2 mph N/A Snow Light Snow
7:55 PM 32.0 °F 20.8 °F 32.0 °F 100% 30.37 in 0.8 mi North 17.3 mph - N/A Snow Light Snow
8:15 PM 32.0 °F 20.1 °F 32.0 °F 100% 30.36 in 0.5 mi North 19.6 mph - N/A   Overcast
8:35 PM 32.0 °F 20.8 °F 32.0 °F 100% 30.36 in 0.5 mi North 17.3 mph - N/A Snow Light Snow
8:55 PM 33.8 °F 23.2 °F 32.0 °F 93% 30.37 in 1.0 mi North 17.3 mph - N/A Snow Light Snow
9:15 PM 33.8 °F 23.2 °F 32.0 °F 93% 30.37 in 1.0 mi North 17.3 mph 23.0 mph N/A Snow Light Snow
9:35 PM 33.8 °F 22.8 °F 32.0 °F 93% 30.38 in 1.2 mi North 18.4 mph - N/A Snow Light Snow
9:55 PM 33.8 °F 22.8 °F 32.0 °F 93% 30.36 in 1.5 mi North 18.4 mph - N/A Snow Light Snow
10:15 PM 33.8 °F 22.5 °F 32.0 °F 93% 30.34 in 2.5 mi North 19.6 mph 27.6 mph N/A   Overcast
10:35 PM 33.8 °F 22.2 °F 30.2 °F 87% 30.35 in 2.0 mi North 20.7 mph - N/A   Overcast
10:55 PM 32.0 °F 20.5 °F 30.2 °F 93% 30.33 in 3.0 mi North 18.4 mph 25.3 mph N/A Rain Light Rain
11:15 PM 33.8 °F 21.9 °F 30.2 °F 87% 30.34 in 7.0 mi North 21.9 mph - N/A Rain Light Rain
11:35 PM 32.0 °F 20.1 °F 30.2 °F 93% 30.34 in 3.0 mi North 19.6 mph 26.5 mph N/A   Overcast
11:55 PM 33.8 °F 21.9 °F 30.2 °F 87% 30.32 in 5.0 mi North 21.9 mph 28.8 mph N/A Rain Light Rain